Location: Carri�res
(48.9069°N, 2.1792°E)
Time: 17:35:48
(UTC+00:00)

SeaSat 1 - Pass Details

Date: 18 May 2021
Orbit: 744 x 747 km, 108.0° (Epoch: 12 June)

Event Time Altitude Azimuth Distance (km) Brightness Sun altitude
Rises 01:18:53 0° 26° (NNE) 3,203 7.4 -18.6°
Reaches altitude 10° 01:21:12 10° 22° (NNE) 2,275 6.2 -18.4°
Maximum altitude 01:26:00 54° 306° (NW) 913 2.9 -18.1°
Enters shadow 01:28:34 26° 241° (WSW) 1,438 3.5 -17.9°
